Погода в Лаутербруннене

Швейцария     46°35′43″N   7°54′26″E
темп.,
°C
ветер,
м/с
пор.,
м/с
влажн.,
%
обл.,
%
осадки,
мм/ч
давл.,
гПа
погр.,
м
27 января, чт
чт2701:00−8ссв23255 0.0 103311
04:00−8с2226100 0.0 103211
07:00−8с232799 0.0 103211
10:00−3с2244100 0.0 102915
13:000сз2264100 0.0 102665
16:00−4сз3258100 0.0 102816
19:00−9ссз232921 0.0 103313
22:00−10ссз33320 0.0 103512
28 января, пт
пт2801:00−10сз333933 0.0 103514
04:00−11сз336227 0.0 103515
07:00−9сз449574 0.0 103590
10:00−8сз449662 0.0 1036176
13:00−6сз446569 0.0 1034280
16:00−8сз336872 0.0 103525
19:00−12ссз23223 0.0 103912
22:00−11ссз232426 0.0 103912
29 января, сб
сб2901:00−10ссз233257 0.0 103715
04:00−8ссз335092 0.0 103520
07:00−9ссз335458 0.0 103517
10:00−5ссз336131 0.0 103376
13:00−3сз33634 0.0 1031182
16:00−4сз22750 0.0 103239
19:00−7сз23671 0.0 103413
22:00−8ссз23677 0.0 103515
30 января, вс
вс3001:00−9ссз33684 0.0 103515
04:00−9ссз33640 0.0 103416
07:00−8ссз33783 0.0 103221
10:00−5ссз348513 0.0 1031115
13:00−3ссз339453 0.0 1027200
16:00−4с32812 0.0 102737
19:00−8ссв33195 0.0 102811
22:00−7ссв231225 0.0 102710
31 января, пн
пн3101:00−6ссв1214100 0.0 102410
04:00−6ссв121791 0.0 102210
07:00−6ссв021677 0.0 102010
10:00−5сз2248100 0.0 102025
13:00−5сз3353100 0.0 1016278
16:00−8зсз448696 0.0 1018122
19:00−10сз4497100 1.5 1020238
22:00−11сз4496100 1.4 1022227